User: anonymous   Login
Location: Greenwich
(51.4790°N, 0.0090°E)
Time: 11:52:31
(UTC+01:00)
Language:

Courier 1B Rocket - Orbit

View from above orbital plane
View from above orbital plane
View from above satellite
View from above satellite

Ground track
Ground track

The orbit data is extracted from the following two-line orbital elements,

1 00059U 60013B   24107.67731772  .00000213  00000-0  16414-3 0  9993
2 00059  28.2480 230.3618 0188881 150.8040 210.3211 13.53065299135883
Epoch (UTC): 16 April 2024 16:15:20
Eccentricity: 0.0188881
inclination: 28.2480°
perigee height: 920 km
apogee height: 1201 km
right ascension of ascending node: 230.3618°
argument of perigee: 150.8040°
revolutions per day: 13.53065299
mean anomaly at epoch: 210.3211°
orbit number at epoch: 13588

The dashed part of the orbit path shows where the satellite is in the earth's shadow,  

DLR